• In Lithuania
  • List of Countries
  • For 7 days
  • Water Temperature
  • Satellite Maps
  • Weather Map
  • Weather Widgets
  • user-avatar
    Login

    Hourly Weather Albany

    Today, 23 August, Wednesday

    Time Temperature Precipitation Wind Pressure Humidity
    00:00 +9°C° 0 mm 2 mps 765 mmHg 76%
    01:00 +9°C° 0 mm 2 mps 765 mmHg 77%
    02:00 +9°C° 0 mm 2 mps 765 mmHg 78%
    03:00 +8°C° 0 mm 2 mps 766 mmHg 80%
    04:00 +8°C° 0 mm 2 mps 766 mmHg 82%
    05:00 +8°C° 0 mm 2 mps 766 mmHg 84%
    06:00 +8°C° 0 mm 2 mps 766 mmHg 82%
    07:00 +9°C° 0 mm 2 mps 766 mmHg 81%
    08:00 +12°C° 0 mm 2 mps 767 mmHg 76%
    09:00 +13°C° 0 mm 1 mps 767 mmHg 70%
    10:00 +15°C° 0 mm 1 mps 767 mmHg 65%
    11:00 +16°C° 0 mm 1 mps 767 mmHg 60%
    12:00 +16°C° 0 mm 1 mps 767 mmHg 59%
    13:00 +16°C° 0 mm 1 mps 767 mmHg 58%
    14:00 +17°C° 0 mm 2 mps 767 mmHg 58%
    15:00 +16°C° 0 mm 2 mps 767 mmHg 62%
    16:00 +15°C° 0 mm 2 mps 767 mmHg 66%
    17:00 +15°C° 0 mm 2 mps 767 mmHg 71%
    18:00 +13°C° 0 mm 1 mps 768 mmHg 75%
    19:00 +12°C° 0 mm 1 mps 768 mmHg 80%
    20:00 +11°C° 0 mm 1 mps 769 mmHg 84%
    21:00 +10°C° 0 mm 1 mps 769 mmHg 85%
    22:00 +10°C° 0 mm 1 mps 769 mmHg 87%
    23:00 +9°C° 0 mm 1 mps 769 mmHg 88%

    Tomorrow, 24 August, Thursday

    Time Temperature Precipitation Wind Pressure Humidity
    00:00 +9°C° 0 mm 1 mps 769 mmHg 88%
    01:00 +9°C° 0 mm 1 mps 769 mmHg 89%
    02:00 +9°C° 0 mm 1 mps 769 mmHg 89%
    03:00 +9°C° 0 mm 1 mps 768 mmHg 90%
    04:00 +9°C° 0 mm 1 mps 768 mmHg 90%
    05:00 +8°C° 0 mm 1 mps 768 mmHg 91%
    06:00 +9°C° 0 mm 1 mps 768 mmHg 89%
    07:00 +10°C° 0 mm 1 mps 768 mmHg 87%
    08:00 +11°C° 0 mm 1 mps 769 mmHg 85%
    09:00 +13°C° 0 mm 1 mps 768 mmHg 77%
    10:00 +14°C° 0 mm 1 mps 768 mmHg 70%
    11:00 +16°C° 0 mm 1 mps 768 mmHg 62%
    12:00 +16°C° 0 mm 1 mps 768 mmHg 63%
    13:00 +16°C° 0 mm 2 mps 767 mmHg 63%
    14:00 +16°C° 0 mm 2 mps 767 mmHg 64%
    15:00 +15°C° 0 mm 2 mps 767 mmHg 67%
    16:00 +15°C° 0 mm 2 mps 767 mmHg 70%
    17:00 +14°C° 0 mm 2 mps 767 mmHg 73%
    18:00 +13°C° 0 mm 2 mps 767 mmHg 77%
    19:00 +12°C° 0 mm 2 mps 767 mmHg 81%
    20:00 +10°C° 0 mm 2 mps 767 mmHg 85%
    21:00 +9°C° 0 mm 2 mps 767 mmHg 86%
    22:00 +9°C° 0 mm 2 mps 767 mmHg 86%
    23:00 +10°C° 0 mm 1 mps 767 mmHg 87%

    Day after tomorrow, 25 August, Friday

    Time Temperature Precipitation Wind Pressure Humidity
    00:00 +10°C° 0 mm 1 mps 767 mmHg 88%
    01:00 +9°C° 0 mm 1 mps 767 mmHg 88%
    02:00 +9°C° 0 mm 1 mps 766 mmHg 89%
    03:00 +9°C° 0 mm 1 mps 766 mmHg 89%
    04:00 +9°C° 0 mm 1 mps 766 mmHg 89%
    05:00 +9°C° 0 mm 1 mps 766 mmHg 90%
    06:00 +10°C° 0 mm 1 mps 766 mmHg 87%
    07:00 +11°C° 0 mm 1 mps 766 mmHg 84%
    08:00 +12°C° 0 mm 1 mps 766 mmHg 81%
    09:00 +13°C° 0 mm 1 mps 766 mmHg 75%
    10:00 +15°C° 0 mm 2 mps 766 mmHg 69%
    11:00 +16°C° 0 mm 2 mps 766 mmHg 63%
    12:00 +16°C° 0 mm 2 mps 766 mmHg 65%
    13:00 +15°C° 0 mm 2 mps 765 mmHg 67%
    14:00 +15°C° 0 mm 2 mps 765 mmHg 69%
    15:00 +13°C° 0 mm 3 mps 765 mmHg 70%
    16:00 +13°C° 0 mm 3 mps 765 mmHg 71%
    17:00 +13°C° 0 mm 3 mps 765 mmHg 73%
    18:00 +12°C° 0 mm 3 mps 765 mmHg 74%
    19:00 +12°C° 0 mm 2 mps 766 mmHg 76%
    20:00 +12°C° 0 mm 2 mps 766 mmHg 77%
    21:00 +10°C° 0 mm 2 mps 766 mmHg 79%
    22:00 +10°C° 0 mm 2 mps 766 mmHg 81%
    23:00 +9°C° 0 mm 2 mps 766 mmHg 83%

    26 August, Saturday

    Time Temperature Precipitation Wind Pressure Humidity
    00:00 +9°C° 0 mm 2 mps 766 mmHg 83%
    01:00 +9°C° 0 mm 2 mps 766 mmHg 83%
    02:00 +9°C° 0 mm 2 mps 766 mmHg 84%
    03:00 +9°C° 0 mm 2 mps 766 mmHg 84%
    04:00 +9°C° 0 mm 2 mps 766 mmHg 84%
    05:00 +9°C° 0 mm 2 mps 766 mmHg 84%
    06:00 +10°C° 0 mm 3 mps 767 mmHg 82%
    07:00 +11°C° 0 mm 3 mps 767 mmHg 81%
    08:00 +12°C° 0 mm 3 mps 767 mmHg 80%
    09:00 +12°C° 0 mm 3 mps 767 mmHg 78%
    10:00 +13°C° 0 mm 4 mps 767 mmHg 77%
    11:00 +14°C° 0 mm 4 mps 767 mmHg 75%
    12:00 +14°C° 0.1 mm 4 mps 767 mmHg 76%
    13:00 +14°C° 0.1 mm 5 mps 766 mmHg 77%
    14:00 +14°C° 0.1 mm 5 mps 766 mmHg 78%
    15:00 +14°C° 0.1 mm 5 mps 766 mmHg 80%
    16:00 +14°C° 0.1 mm 5 mps 766 mmHg 83%
    17:00 +14°C° 0.1 mm 6 mps 766 mmHg 85%
    18:00 +13°C° 0 mm 6 mps 767 mmHg 86%
    19:00 +13°C° 0 mm 6 mps 767 mmHg 88%
    20:00 +11°C° 0 mm 6 mps 767 mmHg 89%
    21:00 +11°C° 0 mm 6 mps 767 mmHg 88%
    22:00 +11°C° 0 mm 6 mps 767 mmHg 88%
    23:00 +11°C° 0 mm 6 mps 767 mmHg 88%

    27 August, Sunday

    Time Temperature Precipitation Wind Pressure Humidity
    00:00 +13°C° 0 mm 6 mps 767 mmHg 87%
    01:00 +13°C° 0 mm 6 mps 767 mmHg 86%
    02:00 +13°C° 0 mm 6 mps 766 mmHg 85%
    03:00 +13°C° 0 mm 6 mps 766 mmHg 85%
    04:00 +13°C° 0 mm 6 mps 766 mmHg 86%
    05:00 +13°C° 0 mm 6 mps 766 mmHg 86%
    06:00 +13°C° 0 mm 6 mps 766 mmHg 85%
    07:00 +13°C° 0 mm 6 mps 766 mmHg 84%
    08:00 +14°C° 0 mm 6 mps 766 mmHg 83%
    09:00 +15°C° 0 mm 6 mps 766 mmHg 78%
    10:00 +16°C° 0 mm 6 mps 766 mmHg 74%
    11:00 +17°C° 0 mm 6 mps 766 mmHg 69%
    12:00 +17°C° 0.1 mm 6 mps 765 mmHg 67%
    13:00 +17°C° 0.1 mm 6 mps 764 mmHg 65%
    14:00 +19°C° 0.1 mm 5 mps 764 mmHg 63%
    15:00 +17°C° 0 mm 5 mps 763 mmHg 66%
    16:00 +16°C° 0 mm 5 mps 763 mmHg 69%
    17:00 +16°C° 0 mm 5 mps 763 mmHg 73%
    18:00 +15°C° 0 mm 5 mps 764 mmHg 76%
    19:00 +14°C° 0 mm 5 mps 764 mmHg 79%
    20:00 +13°C° 0 mm 5 mps 764 mmHg 82%
    21:00 +13°C° 0 mm 5 mps 764 mmHg 85%
    22:00 +12°C° 0 mm 5 mps 763 mmHg 87%
    23:00 +12°C° 0 mm 5 mps 763 mmHg 89%

    28 August, Monday

    Time Temperature Precipitation Wind Pressure Humidity
    00:00 +12°C° 0 mm 4 mps 762 mmHg 90%
    01:00 +12°C° 0 mm 4 mps 762 mmHg 91%
    02:00 +12°C° 0 mm 4 mps 762 mmHg 91%
    03:00 +12°C° 0.1 mm 4 mps 762 mmHg 91%
    04:00 +13°C° 0.1 mm 4 mps 761 mmHg 91%
    05:00 +13°C° 0.1 mm 4 mps 761 mmHg 91%
    06:00 +13°C° 0.3 mm 4 mps 761 mmHg 90%
    07:00 +14°C° 0.3 mm 4 mps 761 mmHg 89%
    08:00 +14°C° 0.3 mm 4 mps 761 mmHg 88%
    09:00 +14°C° 0.7 mm 5 mps 761 mmHg 88%
    10:00 +15°C° 0.7 mm 5 mps 761 mmHg 87%
    11:00 +15°C° 0.7 mm 5 mps 760 mmHg 87%
    12:00 +15°C° 1.2 mm 5 mps 760 mmHg 86%
    13:00 +15°C° 1.2 mm 5 mps 759 mmHg 85%
    14:00 +15°C° 1.2 mm 6 mps 759 mmHg 84%
    15:00 +15°C° 0.7 mm 6 mps 759 mmHg 85%
    16:00 +14°C° 0.7 mm 6 mps 759 mmHg 86%
    17:00 +14°C° 0.7 mm 7 mps 759 mmHg 88%
    18:00 +14°C° 0.4 mm 7 mps 759 mmHg 89%
    19:00 +14°C° 0.4 mm 7 mps 760 mmHg 90%
    20:00 +14°C° 0.4 mm 7 mps 760 mmHg 91%
    21:00 +12°C° 0.9 mm 7 mps 760 mmHg 92%
    22:00 +12°C° 0.9 mm 7 mps 760 mmHg 92%
    23:00 +12°C° 0.9 mm 8 mps 760 mmHg 92%
    Show more